METEOR 2-14

导读

METEOR 2-14是独联体(CIS)发射的第二代极轨气象卫星,属于苏联/俄罗斯“流星(METEOR)”气象卫星系列。该卫星于1986年5月27日发射升空,运行于近地轨道,主要承担气象观测、气候研究与灾害监测任务,为天气预报和全球气象研究提供关键数据支持,延续了“流星”系列持续服务气象领域的任务目标。

Basic Information
目录编号:
16735
目录名称:
METEOR 2-14
国际标识:
1986-039A
轨道中心:
EARTH
卫星名称:
METEOR 2-14
卫星全名:
--
卫星状态:
在轨 (已飞行14627 天)
发射日期:
1986-05-27 UTC
国别 :
俄罗斯(独联体) (CIS)
星等 :
--
Orbit Information
数据来源 国际轨道数据 AOE轨道数据
星历时间 2026-06-13T03:57:47+0800
7小时前
查看轨道信息
2026-06-12T05:00:00+0800
1天前
查看轨道信息
半长轴 7322.396km 7322.385km
偏心率 0.0013946 0.0013279
轨道倾角 82.536° 82.537°
近地点辐角 211.520° 217.302°
升交点赤经 287.315° 288.076°
平近点角 260.965° 165.395°
近地点 934.047km 934.524km
远地点 954.471km 953.972km
周期 103.930分钟 103.929分钟
每日圈数 13.855526 13.855556
Detailed Information
使用方式:
暂无
2D Orbit Map
3D Orbit Map
Orbit Altitude Analysis Chart
Orbit Inclination Analysis Chart
Orbit Comprehensive Analysis Chart
View Comprehensive Chart